This demonstration page uses our WeatherBlox Daily Observations layout. Learn more.

Left ArrowRight Arrow

39.51506, -84.39828

Hourly Observations for April 11, 2020

Temp ( °F °C ) Dew Point ( °F °C ) Humidity (%) Winds ( mph kmh ) Pressure ( in mb ) Visibility ( mi km ) Precip ( " mm )
12:15 am 00:15 Clear 36 2.1 33 0.4 89 89 N N/A 30.04 1017 10 16 N/A
12:35 am 00:35 Clear 36 2 32 undefined 87 87 N N/A 30.05 1018 10 16 N/A
12:55 am 00:55 Clear 36 2.1 32 0.2 87 87 N N/A 30.05 1018 10 16 N/A
1:15 am 01:15 Clear 37 2.6 33 0.4 86 86 SW 5 7 30.05 1018 10 16 N/A
1:35 am 01:35 Clear 38 3.6 33 0.4 80 80 SSW 5 7 30.05 1017 10 16 N/A
1:55 am 01:55 Clear 39 4 33 0.3 77 77 S 6 9 30.04 1017 N/A N/A
2:15 am 02:15 Clear 38 3.5 32 -0.2 77 77 SSW 5 7 30.05 1017 N/A N/A
2:35 am 02:35 Clear 38 3.2 30 -0.9 75 75 SSW 3 6 30.05 1017 10 16 N/A
2:55 am 02:55 Clear 38 3.5 31 -0.4 76 76 N N/A 30.05 1017 10 16 N/A
3:15 am 03:15 Clear 37 3 30 -1 75 75 N N/A 30.05 1018 10 16 N/A
3:35 am 03:35 Clear 36 2.2 30 -1.1 79 79 SW 5 7 30.05 1018 10 16 N/A
3:55 am 03:55 Clear 35 1.8 32 -0.2 87 87 SW 3 6 30.05 1018 10 16 N/A
4:15 am 04:15 undefined 33 0.8 31 -0.3 92 92 N N/A 30.06 1018 N/A N/A
4:35 am 04:35 undefined 34 1.1 32 0.2 94 94 SSW 3 6 30.06 1018 N/A N/A
4:55 am 04:55 undefined 36 2.1 33 0.4 89 89 SSW 6 9 30.05 1018 N/A N/A
5:15 am 05:15 Clear 38 3.2 33 0.7 84 84 SSW 6 9 30.05 1017 N/A N/A
5:35 am 05:35 Partly Cloudy 38 3.4 33 0.6 82 82 SSW 5 7 30.05 1017 N/A N/A
5:55 am 05:55 Partly Cloudy 38 3.5 33 0.5 81 81 SSW 5 7 30.05 1017 10 16 N/A
6:15 am 06:15 Mostly Cloudy 39 3.7 32 0.2 78 78 SSW 5 7 30.05 1017 10 16 N/A
6:35 am 06:35 Cloudy 38 3.6 34 0.9 83 83 SW 5 7 30.06 1018 10 16 N/A
6:55 am 06:55 Cloudy 39 3.8 33 0.8 81 81 SSW 5 7 30.05 1018 10 16 N/A
7:15 am 07:15 Cloudy 39 4 34 1 81 81 SW 5 7 30.06 1018 N/A N/A
7:35 am 07:35 Cloudy 39 4.1 34 1.2 82 82 SW 3 6 30.07 1018 N/A N/A
7:55 am 07:55 Cloudy 40 4.4 33 0.7 77 77 SSW 6 9 30.07 1018 N/A N/A
8:15 am 08:15 Cloudy 40 4.7 34 1.2 78 78 SSW 6 9 30.07 1018 N/A N/A
8:35 am 08:35 Cloudy 41 5 34 1.2 77 77 SW 3 6 30.08 1019 10 16 N/A
8:55 am 08:55 Cloudy 42 5.6 34 1.3 74 74 SW 7 11 30.08 1019 10 16 N/A
9:15 am 09:15 Cloudy 43 6 33 0.6 69 69 SW 6 9 30.08 1019 10 16 N/A
9:35 am 09:35 Cloudy 43 6.2 32 0.2 66 66 SW 6 9 30.08 1019 10 16 N/A
9:55 am 09:55 Cloudy 44 6.7 33 0.4 64 64 SSW 7 11 30.09 1019 10 16 N/A
10:15 am 10:15 Cloudy 45 7.1 33 0.4 63 63 SW 7 11 30.09 1019 10 16 N/A
10:35 am 10:35 Cloudy 45 7.3 32 0.2 61 61 SSW 5 7 30.09 1019 10 16 N/A
10:55 am 10:55 Cloudy 46 7.7 32 undefined 59 59 S 5 7 30.08 1019 10 16 N/A
11:15 am 11:15 Cloudy 47 8.2 32 0.2 57 57 SW 3 6 30.08 1019 10 16 N/A
11:35 am 11:35 Cloudy 48 8.7 32 0.1 55 55 N N/A 30.08 1019 10 16 N/A
11:55 am 11:55 Cloudy 49 9.5 33 0.4 53 53 SW 5 7 30.08 1019 10 16 N/A
12:15 pm 12:15 Cloudy 51 10.5 33 0.5 50 50 SSW 6 9 30.08 1019 10 16 N/A
12:35 pm 12:35 Cloudy 51 10.8 32 -0.1 47 47 SW 9 15 30.07 1018 10 16 N/A
12:55 pm 12:55 Cloudy 53 11.7 31 -0.4 44 44 SSW 6 9 30.05 1018 10 16 N/A
1:15 pm 13:15 Cloudy 53 11.7 30 -1 42 42 SW 9 15 30.04 1017 10 16 N/A
1:35 pm 13:35 Cloudy 54 12.4 29 -1.4 39 39 S 10 17 30.03 1017 10 16 N/A
1:55 pm 13:55 Cloudy 55 12.5 29 -1.6 38 38 S 10 17 30.03 1017 10 16 N/A
2:15 pm 14:15 Partly Cloudy 56 13.6 29 -1.4 36 36 SSW 7 11 30.02 1017 10 16 N/A
2:35 pm 14:35 Sunny 58 14.4 31 -0.4 36 36 S 8 13 30.01 1016 10 16 N/A
2:55 pm 14:55 Sunny 59 14.9 31 -0.5 35 35 SSW 7 11 29.99 1015 10 16 N/A
3:15 pm 15:15 Sunny 60 15.3 31 -0.4 34 34 SSW 8 13 29.99 1015 10 16 N/A
3:35 pm 15:35 Sunny 60 15.6 30 -1.3 32 32 S 14 22 29.98 1015 10 16 N/A
3:55 pm 15:55 Sunny 60 15.6 27 -2.6 29 29 SW 13 20 29.97 1015 10 16 N/A
4:15 pm 16:15 Sunny 61 16.3 29 -1.8 29 29 SW 12 19 29.95 1014 10 16 N/A
4:35 pm 16:35 Sunny 60 15.7 29 -1.5 31 31 S 10 17 29.94 1014 10 16 N/A
4:55 pm 16:55 Sunny 61 16 28 -2.1 29 29 SW 13 20 29.93 1014 10 16 N/A
5:15 pm 17:15 Sunny 61 16 30 -1.3 31 31 S 10 17 29.92 1013 10 16 N/A
5:35 pm 17:35 Sunny 62 16.5 28 -2.3 28 28 SSW 10 17 29.92 1013 10 16 N/A
5:55 pm 17:55 Sunny 61 16 27 -2.8 28 28 SSW 12 19 29.92 1013 10 16 N/A
6:15 pm 18:15 Sunny 61 15.9 26 -3.1 27 27 SSW 13 20 29.92 1013 10 16 N/A
6:35 pm 18:35 Sunny 60 15.8 27 -2.9 28 28 SSW 15 24 29.92 1013 10 16 N/A
6:55 pm 18:55 Sunny 60 15.5 26 -3.2 28 28 SSW 16 26 29.93 1013 10 16 N/A
7:15 pm 19:15 Sunny 61 15.9 26 -3.4 27 27 SSW 10 17 29.92 1013 10 16 N/A
7:35 pm 19:35 Sunny 60 15.3 25 -4 26 26 S 14 22 29.92 1013 10 16 N/A
7:55 pm 19:55 Sunny 58 14.6 24 -4.3 27 27 S 10 17 29.92 1013 10 16 N/A
8:15 pm 20:15 Clear 58 14.2 23 -4.8 27 27 S 12 19 29.92 1013 10 16 N/A
8:35 pm 20:35 Clear 56 13.2 24 -4.4 29 29 S 8 13 29.91 1013 10 16 N/A
8:55 pm 20:55 Clear 56 13.3 26 -3.5 31 31 S 10 17 29.91 1013 10 16 N/A
9:15 pm 21:15 Clear 56 13.2 28 -2.2 35 35 S 10 17 29.91 1013 10 16 N/A
9:35 pm 21:35 Clear 55 13 28 -2 36 36 SSE 12 19 29.91 1013 10 16 N/A
9:55 pm 21:55 Clear 55 12.8 28 -2.4 35 35 SSE 12 19 29.91 1013 10 16 N/A
10:15 pm 22:15 Clear 55 12.7 28 -2.4 35 35 SSE 10 17 29.91 1013 10 16 N/A
10:35 pm 22:35 Clear 54 12.3 28 -2 37 37 SSE 9 15 29.91 1013 10 16 N/A
10:55 pm 22:55 Clear 53 11.8 29 -1.6 40 40 SSE 7 11 29.90 1013 10 16 N/A
11:15 pm 23:15 Clear 53 11.4 29 -1.4 41 41 SE 6 9 29.90 1012 10 16 N/A
11:35 pm 23:35 Clear 53 11.6 29 -1.7 40 40 S 7 11 29.90 1013 10 16 N/A
11:55 pm 23:55 Partly Cloudy 50 10 33 0.3 51 51 S 5 7 29.91 1013 10 16 N/A

Powered by AerisWeather